Stations météo

Publicité
Montpellier, France (7643): Température de l'air & dewpoint: 14.08.2017 19:00:00 - 20.08.2017 19:00:00 (CEST)Montpellier, France (7643): Température de l'air 5cm: 14.08.2017 19:00:00 - 20.08.2017 19:00:00 (CEST)Montpellier, France (7643): Température de l'air -20cm & Température de l'air -100cm: 14.08.2017 19:00:00 - 20.08.2017 19:00:00 (CEST)Montpellier, France (7643): Vitesse du vent & gusts: 14.08.2017 19:00:00 - 20.08.2017 19:00:00 (CEST)Montpellier, France (7643): Direction du vent: 14.08.2017 19:00:00 - 20.08.2017 19:00:00 (CEST)Montpellier, France (7643): reduced air pressure: 14.08.2017 19:00:00 - 20.08.2017 19:00:00 (CEST)Montpellier, France (7643): visibility: 14.08.2017 19:00:00 - 20.08.2017 19:00:00 (CEST)Montpellier, France (7643): Ensoleillement: 14.08.2017 19:00:00 - 20.08.2017 19:00:00 (CEST)Montpellier, France (7643): Quantités de précipitations: 14.08.2017 19:00:00 - 20.08.2017 19:00:00 (CEST)
Date & Time tt [°C] td [°C] tt 5cm [°C] tt -20cm [°C] tt -100cm [°C] ff [km/h] ff [knt] fx [km/h] fx [knt] dd ppp [hPa] vv [km] sd [min] rr [mm]
20.08.2017 19:00:00 28,3 8,6 30,7 26,8 25,0 13 7 20 11 SSW 1018,2 54 60 0,0
20.08.2017 18:00:00 28,9 8,0 33,5 26,8 25,0 14 7 24 13 SSW 1018,4 47 60 0,0
20.08.2017 17:00:00 28,4 7,0 34,4 26,8 25,0 19 10 25 14 SSW 1018,7 51 60 0,0
20.08.2017 16:00:00 30,6 7,7 38,8 26,7 25,0 11 6 29 16 SSE 1018,7 10 60 0,0
20.08.2017 15:00:00 29,8 3,7 38,9 26,7 25,0 10 6 31 17 NNE 1019,3 50 60 0,0
20.08.2017 14:00:00 28,1 3,7 36,0 26,8 25,0 11 6 38 20 NNW 1020,0 46 60 0,0
20.08.2017 13:00:00 27,0 3,5 33,5 26,8 25,0 19 10 42 23 N 1020,5 45 60 0,0
20.08.2017 12:00:00 25,3 3,3 28,5 26,9 25,0 16 9 46 25 NW 1021,4 60 60 0,0
20.08.2017 11:00:00 23,3 4,3 24,7 26,9 25,0 27 15 40 22 N 1021,9 60 60 0,0
20.08.2017 10:00:00 21,2 6,7 21,1 27,0 25,0 13 7 22 12 NW 1022,3 60 60 0,0
20.08.2017 09:00:00 19,3 7,1 17,8 27,1 25,0 11 6 16 9 W 1022,3 60 56 0,0
20.08.2017 08:00:00 17,5 7,2 15,6 27,2 25,0 10 6 18 10 W 1021,9 60 17 0,0
20.08.2017 07:00:00 17,3 7,1 16,0 27,2 25,0 10 6 18 10 W 1021,3 60 0 0,0
20.08.2017 06:00:00 18,5 6,7 17,1 27,3 25,0 13 7 21 11 WNW 1021,1 60 0 0,0
20.08.2017 05:00:00 19,0 6,8 17,1 27,3 25,0 15 8 21 12 NNW 1021,1 60 0 0,0
20.08.2017 04:00:00 19,1 6,9 16,5 27,4 25,0 10 5 16 9 NW 1021,0 60 0 0,0
20.08.2017 03:00:00 18,8 6,9 16,8 27,4 25,0 6 3 11 6 SW 1020,9 60 0 0,0
20.08.2017 02:00:00 19,6 6,7 17,6 27,4 25,0 22 12 29 16 NNW 1020,4 60 0 0,0
20.08.2017 01:00:00 21,3 6,4 18,8 27,4 25,0 6 3 11 6 NNW 1020,6 60 0 0,0
20.08.2017 00:00:00 22,5 6,7 20,0 27,4 24,9 2 1 16 9 W 1020,3 60 0 0,0
19.08.2017 23:00:00 23,9 7,1 21,7 27,4 25,0 7 4 17 9 NW 1019,9 60 0 0,0
19.08.2017 22:00:00 24,9 7,5 23,0 27,3 25,0 8 4 22 12 N 1019,4 60 0 0,0
19.08.2017 21:00:00 26,5 -0,6 25,1 27,3 25,0 17 9 36 20 NNW 1018,4 60 2 0,0
19.08.2017 20:00:00 28,2 -1,8 27,9 27,3 25,0 25 14 50 27 NW 1017,4 50 51 0,0
19.08.2017 19:00:00 30,2 -1,3 30,9 27,2 25,0 32 17 57 31 NW 1016,6 30 60 0,0
19.08.2017 18:00:00 31,5 -2,5 33,8 27,2 25,0 32 18 46 25 NW 1016,3 33 60 0,0
19.08.2017 17:00:00 32,8 -1,5 37,3 27,1 24,9 27 14 44 24 NW 1016,5 44 60 0,0
19.08.2017 16:00:00 32,3 -1,9 38,4 27,1 24,9 26 14 35 19 WNW 1016,6 49 60 0,0
19.08.2017 15:00:00 30,8 2,9 36,5 27,0 24,9 10 5 28 15 NW 1017,3 51 60 0,0
19.08.2017 14:00:00 29,3 5,4 34,5 27,0 24,9 10 6 26 14 WNW 1017,8 50 60 0,0
19.08.2017 13:00:00 27,8 8,6 28,6 27,0 24,9 11 6 27 15 WNW 1018,6 56 52 0,0
19.08.2017 12:00:00 26,1 10,3 29,1 27,1 24,9 11 6 24 13 NW 1018,8 40 50 0,0
19.08.2017 11:00:00 25,8 11,5 27,7 27,1 24,9 17 9 32 17 N 1019,1 60 60 0,0
19.08.2017 10:00:00 24,5 12,1 24,6 27,2 24,9 15 8 26 14 NNW 1019,2 59 58 0,0
19.08.2017 09:00:00 22,9 13,4 21,7 27,2 24,9 12 7 21 12 WNW 1019,3 54 45 0,0
19.08.2017 08:00:00 22,0 12,5 21,2 27,2 24,9 13 7 23 13 WNW 1019,0 58 2 0,0
19.08.2017 07:00:00 23,0 11,4 21,7 27,3 24,9 15 8 29 16 NW 1018,6 60 0 0,0
19.08.2017 06:00:00 23,2 12,2 20,0 27,3 25,0 7 4 14 8 NW 1017,7 60 0 0,0
19.08.2017 05:00:00 23,2 13,4 20,7 27,3 24,9 8 4 13 7 N 1017,6 60 0 0,0
19.08.2017 04:00:00 23,8 14,8 22,3 27,3 24,9 10 6 13 7 NNW 1017,3 60 0 0,0
19.08.2017 03:00:00 24,1 15,0 22,9 27,2 24,9 8 5 23 12 N 1017,0 60 0 0,0
19.08.2017 02:00:00 25,9 15,3 25,1 27,3 24,9 16 9 29 16 NW 1017,0 60 0 0,0
19.08.2017 01:00:00 26,4 17,2 25,0 27,2 24,9 9 5 22 12 NNW 1016,6 60 0 0,0
19.08.2017 00:00:00 27,5 15,8 26,8 27,2 24,9 17 9 37 20 NNW 1016,0 60 0 0,0
18.08.2017 23:00:00 28,0 16,0 27,5 27,2 24,9 23 12 36 20 WNW 1016,1 60 0 0,0
18.08.2017 22:00:00 29,1 16,3 25,0 27,2 24,9 23 13 36 19 NW 1015,7 60 0 0,0
18.08.2017 21:00:00 25,2 21,1 24,4 27,1 24,9 9 5 16 9 WSW 1015,1 19 0 0,0
18.08.2017 20:00:00 24,7 21,4 24,7 27,0 24,9 10 5 16 9 SSW 1015,1 19 0 0,0
18.08.2017 19:00:00 25,0 21,5 25,5 27,0 24,9 12 7 19 10 SSW 1014,9 17 34 0,0
18.08.2017 18:00:00 25,9 22,0 27,0 26,9 24,9 13 7 21 11 S 1014,7 19 35 0,0
18.08.2017 17:00:00 26,3 21,5 29,0 26,8 24,9 15 8 22 12 SSE 1014,7 20 36 0,0
18.08.2017 16:00:00 26,8 19,2 29,6 26,8 24,9 9 5 21 12 S 1015,6 46 20 0,0
18.08.2017 15:00:00 28,0 19,5 31,9 26,7 24,9 16 9 21 12 SSE 1015,3 32 52 0,0
18.08.2017 14:00:00 27,2 19,5 31,4 26,7 24,9 25 14 36 19 SSE 1015,3 35 55 0,0
18.08.2017 13:00:00 28,3 19,2 33,3 26,7 24,9 13 7 19 10 SSE 1015,8 20 60 0,0
18.08.2017 12:00:00 27,6 19,1 33,2 26,7 24,9 13 7 17 9 SSE 1016,0 19 60 0,0
18.08.2017 11:00:00 28,6 17,5 31,2 26,8 24,9 10 6 17 9 ENE 1016,3 20 60 0,0
18.08.2017 10:00:00 27,6 17,5 28,3 26,9 24,9 10 5 16 9 E 1016,4 54 60 0,0
18.08.2017 09:00:00 24,8 17,5 22,6 26,9 24,9 11 6 16 9 NE 1016,4 60 56 0,0
18.08.2017 08:00:00 21,7 16,6 18,8 26,9 24,9 11 6 15 8 N 1016,5 60 43 0,0
18.08.2017 07:00:00 20,0 15,8 18,8 27,0 24,9 7 4 13 7 NNE 1016,4 41 0 0,0
18.08.2017 06:00:00 20,4 16,0 19,1 27,0 24,9 5 3 13 7 N 1016,1 20 0 0,0
18.08.2017 05:00:00 20,5 16,3 19,4 27,0 24,9 9 5 11 6 NNE 1016,0 38 0 0,0
18.08.2017 04:00:00 21,7 16,6 19,7 27,0 24,9 5 3 10 5 NNW 1016,3 42 0 0,0
18.08.2017 03:00:00 22,2 16,7 21,4 27,0 24,9 9 5 19 10 NE 1016,0 44 0 0,0
18.08.2017 02:00:00 22,5 17,0 21,4 27,0 24,9 10 5 17 9 NNE 1016,4 50 0 0,0
18.08.2017 01:00:00 23,0 17,7 21,7 27,0 24,9 9 5 16 9 N 1016,4 45 0 0,0
18.08.2017 00:00:00 22,8 18,6 21,2 27,0 24,9 9 5 11 6 NW 1016,7 36 0 0,0
17.08.2017 23:00:00 23,4 18,7 22,4 26,9 24,9 6 3 21 12 SSW 1016,5 42 0 0,0
17.08.2017 22:00:00 24,8 18,5 24,3 26,9 24,9 16 8 32 18 SW 1016,5 58 0 0,0
17.08.2017 21:00:00 25,3 17,7 24,5 26,8 24,9 19 11 29 16 SSW 1016,3 53 22 0,0
17.08.2017 20:00:00 26,6 17,9 27,0 26,7 24,9 15 8 23 13 SW 1016,3 44 60 0,0
17.08.2017 19:00:00 28,2 16,8 30,5 26,7 24,9 15 8 27 14 SSW 1016,3 42 60 0,0
17.08.2017 18:00:00 29,1 17,0 33,2 26,6 24,9 17 9 30 16 SSW 1016,4 20 60 0,0
17.08.2017 17:00:00 29,9 16,7 35,5 26,5 24,9 21 11 31 17 SSW 1016,7 32 60 0,0
17.08.2017 16:00:00 30,3 16,7 35,8 26,4 24,9 24 13 34 19 SSW 1017,0 34 60 0,0
17.08.2017 15:00:00 30,5 17,2 37,2 26,4 24,8 20 11 28 15 SSW 1017,5 38 60 0,0
17.08.2017 14:00:00 30,8 16,8 36,9 26,3 24,8 18 10 24 13 SSW 1017,9 20 60 0,0
17.08.2017 13:00:00 29,9 17,0 36,1 26,4 24,9 15 8 22 12 SSW 1018,3 20 60 0,0
17.08.2017 12:00:00 30,2 17,3 35,4 26,4 24,9 11 6 15 8 S 1018,5 50 60 0,0
17.08.2017 11:00:00 28,6 17,5 31,9 26,4 24,8 8 4 10 5 S 1018,9 57 60 0,0
17.08.2017 10:00:00 27,4 18,1 28,9 26,4 24,8 7 4 10 5 SSE 1018,8 15 60 0,0
17.08.2017 09:00:00 25,2 17,1 24,0 26,5 24,8 0 0 4 2 N 1018,5 20 53 0,0
17.08.2017 08:00:00 22,3 17,0 19,7 26,5 24,9 4 2 4 2 WNW 1018,6 29 35 0,0
17.08.2017 07:00:00 21,0 16,4 18,9 26,5 24,9 0 0 5 3 N 1017,9 28 0 0,0
17.08.2017 06:00:00 20,8 16,0 19,2 26,6 24,9 0 0 3 2 N 1017,7 46 0 0,0
17.08.2017 05:00:00 22,1 16,1 19,8 26,5 24,8 0 0 9 5 N 1017,5 49 0 0,0
17.08.2017 04:00:00 23,8 16,6 21,8 26,6 24,9 8 4 14 8 NW 1017,8 48 0 0,0
17.08.2017 03:00:00 24,4 16,4 23,4 26,5 24,8 13 7 18 10 NW 1017,8 50 0 0,0
17.08.2017 02:00:00 24,5 16,2 21,4 26,5 24,9 13 7 16 9 WNW 1018,2 58 0 0,0
17.08.2017 01:00:00 23,2 15,8 20,8 26,5 24,8 8 5 14 8 NNW 1018,1 43 0 0,0
17.08.2017 00:00:00 23,4 20,0 21,5 26,5 24,9 4 2 6 3 NNW 1018,0 29 0 0,0
16.08.2017 23:00:00 23,4 19,3 22,2 26,5 24,8 6 4 14 7 SSW 1018,1 34 0 0,0
16.08.2017 22:00:00 24,5 19,6 23,6 26,5 24,8 10 6 18 10 WSW 1018,0 45 0 0,0
16.08.2017 21:00:00 24,5 19,6 24,0 26,4 24,8 11 6 19 11 SW 1017,7 56 9 0,0
16.08.2017 20:00:00 27,5 17,7 27,8 26,4 24,8 12 6 19 10 SW 1017,4 60 54 0,0
16.08.2017 19:00:00 27,1 17,0 27,9 26,3 24,8 13 7 21 12 SW 1017,1 57 54 0,0
16.08.2017 18:00:00 28,1 16,1 31,3 26,3 24,8 14 8 22 12 SW 1017,4 58 60 0,0
16.08.2017 17:00:00 27,6 15,6 30,7 26,3 24,9 18 10 26 14 SSW 1017,6 59 16 0,0
16.08.2017 16:00:00 29,2 16,0 29,5 26,2 24,8 13 7 35 19 S 1017,8 20 44 0,0
16.08.2017 15:00:00 26,1 15,8 26,3 26,3 24,9 18 10 26 14 SW 1018,4 60 0 0,0
16.08.2017 14:00:00 26,1 16,6 27,6 26,2 24,8 14 8 22 12 SSW 1018,7 46 5 0,0
16.08.2017 13:00:00 27,1 16,4 29,9 26,2 24,8 11 6 17 9 SSW 1018,9 46 21 0,0
16.08.2017 12:00:00 27,5 15,8 31,4 26,3 24,8 9 5 15 8 SSE 1019,1 19 47 0,0
16.08.2017 11:00:00 27,5 16,5 29,8 26,3 24,8 8 5 15 8 SSE 1019,5 19 60 0,0
16.08.2017 10:00:00 25,5 14,6 25,0 26,4 24,9 10 5 17 9 NE 1019,5 42 60 0,0
16.08.2017 09:00:00 21,9 13,0 21,1 26,4 24,8 10 6 17 9 N 1019,8 59 57 0,0
16.08.2017 08:00:00 19,8 13,3 17,7 26,4 24,8 4 2 5 3 NNE 1019,6 10 35 0,0
16.08.2017 07:00:00 19,3 12,8 17,7 26,5 24,8 3 2 13 7 NW 1019,3 58 0 0,0
16.08.2017 06:00:00 19,7 12,9 18,4 26,5 24,8 12 7 17 9 WNW 1019,1 60 0 0,0
16.08.2017 05:00:00 20,1 12,3 18,8 26,5 24,8 7 4 8 5 W 1019,4 60 0 0,0
16.08.2017 04:00:00 20,4 12,4 19,2 26,5 24,8 2 1 13 7 NW 1019,4 60 0 0,0
16.08.2017 03:00:00 20,5 13,9 19,4 26,5 24,8 9 5 12 7 N 1019,9 60 0 0,0
16.08.2017 02:00:00 20,8 14,7 19,6 26,5 24,8 6 3 9 5 N 1020,4 56 0 0,0
16.08.2017 01:00:00 20,6 15,4 20,0 26,5 24,8 8 4 9 5 NE 1020,5 59 0 0,0
16.08.2017 00:00:00 20,8 16,0 20,1 26,5 24,8 8 5 9 5 N 1020,2 55 0 0,0
15.08.2017 23:00:00 21,7 16,4 20,3 26,5 24,9 4 2 10 5 NNW 1020,4 50 0 0,0
15.08.2017 22:00:00 21,6 17,0 20,6 26,4 24,8 3 2 14 8 W 1020,4 41 0 0,0
15.08.2017 21:00:00 22,0 17,1 21,6 26,4 24,8 8 5 16 8 SSW 1019,6 60 0 0,0
15.08.2017 20:00:00 22,6 16,4 22,6 26,3 24,8 13 7 18 10 SSE 1019,0 59 41 0,0
15.08.2017 19:00:00 23,6 16,4 24,9 26,3 24,8 13 7 27 14 S 1019,0 59 52 0,0
15.08.2017 18:00:00 25,4 14,2 26,8 26,2 24,8 16 9 24 13 SSW 1020,4 55 47 0,0
15.08.2017 17:00:00 26,0 13,1 29,4 26,1 24,8 16 9 22 12 SSW 1020,2 33 55 0,0
15.08.2017 16:00:00 26,7 13,8 33,3 26,1 24,8 12 7 20 11 S 1019,8 31 60 0,0
15.08.2017 15:00:00 26,3 14,4 32,9 26,0 24,8 16 8 23 12 S 1019,9 31 60 0,0
15.08.2017 14:00:00 25,8 16,9 32,4 26,0 24,8 16 9 22 12 S 1020,1 20 60 0,0
15.08.2017 13:00:00 25,9 16,7 31,7 26,0 24,8 10 5 16 9 SSE 1020,1 32 60 0,0
15.08.2017 12:00:00 25,2 18,6 28,3 26,0 24,8 10 5 18 10 SSE 1020,5 14 58 0,0
15.08.2017 11:00:00 25,6 18,8 27,6 26,0 24,8 12 6 16 9 ESE 1020,8 11 60 0,0
15.08.2017 10:00:00 24,4 19,2 26,1 26,1 24,8 10 6 17 9 E 1021,0 9 58 0,0
15.08.2017 09:00:00 22,1 18,5 21,7 26,1 24,8 9 5 14 7 ENE 1021,3 20 40 0,0
15.08.2017 08:00:00 20,6 18,5 20,2 26,1 24,8 10 5 16 9 ENE 1021,0 14 21 0,0
15.08.2017 07:00:00 20,4 18,7 20,4 26,1 24,8 5 3 9 5 NNE 1020,9 12 0 0,0
15.08.2017 06:00:00 20,8 18,9 20,7 26,2 24,9 0 0 12 6 N 1020,8 15 0 0,0
15.08.2017 05:00:00 21,0 19,3 20,7 26,2 24,8 8 4 15 8 E 1019,9 16 0 0,0
15.08.2017 04:00:00 20,9 19,0 20,8 26,2 24,8 12 7 16 9 ENE 1020,0 15 0 0,0
15.08.2017 03:00:00 21,2 19,3 21,5 26,2 24,8 6 3 13 7 NNE 1020,2 17 0 0,0
15.08.2017 02:00:00 21,5 19,6 21,1 26,3 24,9 9 5 13 7 NE 1020,4 19 0 0,0
15.08.2017 01:00:00 21,0 19,6 20,5 26,2 24,9 11 6 19 10 E 1020,3 20 0 0,0
15.08.2017 00:00:00 20,9 19,6 20,7 26,2 24,8 15 8 23 12 SE 1020,3 13 0 0,0
14.08.2017 23:00:00 21,0 19,6 20,8 26,2 24,8 14 8 19 10 SE 1020,4 13 0 0,0
14.08.2017 22:00:00 21,4 19,5 20,9 26,1 24,9 10 5 14 8 SE 1020,1 18 0 0,0
14.08.2017 21:00:00 21,4 19,1 21,0 26,1 24,8 10 5 17 9 S 1019,3 29 0 0,0
14.08.2017 20:00:00 22,4 19,2 22,7 26,1 24,9 13 7 18 10 S 1018,9 37 54 0,0
14.08.2017 19:00:00 23,2 18,7 26,2 26,0 24,9 14 8 20 11 S 1018,8 44 60 0,0

tt = Température de l'air
td = dewpoint
tt 5cm = Température de l'air 5cm
tt -20cm = Température de l'air -20cm
tt -100cm = Température de l'air -100cm
ff = Vitesse du vent
fx = gusts
dd = Direction du vent
ppp = reduced air pressure
vv = visibility
sd = Ensoleillement
rr = Quantités de précipitations

stations d'obs. à proximité